"Sample Date","Sample Time","Sensor Name","Sample Value","Units","Flow Rate","Sample Interval","Sample Volume","Laser Status","Number Channels","Micron Size 0","Counts/Channel 0","Micron Size 1","Counts/Channel 1","Micron Size 2","Counts/Channel 2","Micron Size 3","Counts/Channel 3","Micron Size 4","Counts/Channel 4","Micron Size 5","Counts/Channel 5","Micron Size 6","Counts/Channel 6","Micron Size 7","Counts/Channel 7","Micron Size 8","Counts/Channel 8","Micron Size 9","Counts/Channel 9","Micron Size 10","Counts/Channel 10","Micron Size 11","Counts/Channel 11","Micron Size 12","Counts/Channel 12","Micron Size 13","Counts/Channel 13","Micron Size 14","Counts/Channel 14","Micron Size 15","Counts/Channel 15","Micron Size 16","Counts/Channel 16","Micron Size 17","Counts/Channel 17","Micron Size 18","Counts/Channel 18","Micron Size 19","Counts/Channel 19","Micron Size 20","Counts/Channel 20","Micron Size 21","Counts/Channel 21","Micron Size 22","Counts/Channel 22","Micron Size 23","Counts/Channel 23","Micron Size 24","Counts/Channel 24","Micron Size 25","Counts/Channel 25","Micron Size 26","Counts/Channel 26","Micron Size 27","Counts/Channel 27","Micron Size 28","Counts/Channel 28","Micron Size 29","Counts/Channel 29","Micron Size 30","Counts/Channel 30","Micron Size 31","Counts/Channel 31"
"07/09/06","23:00:05","AMMA06",28566.000,"cc",28279.219,6.00,2827.922,1,6,0.100,16223.000,0.200,10835.000,0.300,1374.000,0.500,104.000,1.000,30.000,5.000,0
"07/09/06","23:00:11","AMMA06",28649.000,"cc",28362.313,6.00,2836.231,1,6,0.100,16462.000,0.200,10702.000,0.300,1351.000,0.500,97.000,1.000,37.000,5.000,0
"07/09/06","23:00:17","AMMA06",28391.000,"cc",28263.270,6.00,2826.327,1,6,0.100,16414.000,0.200,10477.000,0.300,1360.000,0.500,96.000,1.000,44.000,5.000,0
"07/09/06","23:00:23","AMMA06",28850.000,"cc",28317.520,6.00,2831.752,1,6,0.100,16658.000,0.200,10680.000,0.300,1376.000,0.500,96.000,1.000,40.000,5.000,0
"07/09/06","23:00:29","AMMA06",28372.000,"cc",28365.430,6.00,2836.543,1,6,0.100,16523.000,0.200,10324.000,0.300,1368.000,0.500,118.000,1.000,39.000,5.000,0
"07/09/06","23:00:35","AMMA06",28298.000,"cc",28324.369,6.00,2832.437,1,6,0.100,16422.000,0.200,10408.000,0.300,1324.000,0.500,112.000,1.000,32.000,5.000,0
"07/09/06","23:00:41","AMMA06",28502.000,"cc",28263.598,6.00,2826.360,1,6,0.100,16497.000,0.200,10474.000,0.300,1381.000,0.500,109.000,1.000,41.000,5.000,0
"07/09/06","23:00:47","AMMA06",28556.000,"cc",28270.182,6.00,2827.018,1,6,0.100,16321.000,0.200,10761.000,0.300,1335.000,0.500,95.000,1.000,44.000,5.000,0
"07/09/06","23:00:53","AMMA06",28765.000,"cc",28315.854,6.00,2831.585,1,6,0.100,16740.000,0.200,10491.000,0.300,1379.000,0.500,110.000,1.000,45.000,5.000,0
"07/09/06","23:00:59","AMMA06",28489.000,"cc",28364.600,6.00,2836.460,1,6,0.100,16447.000,0.200,10556.000,0.300,1322.000,0.500,128.000,1.000,36.000,5.000,0
"07/09/06","23:01:05","AMMA06",28902.000,"cc",28268.656,6.00,2826.866,1,6,0.100,16679.000,0.200,10677.000,0.300,1398.000,0.500,109.000,1.000,39.000,5.000,0
"07/09/06","23:01:11","AMMA06",29005.000,"cc",28289.389,6.00,2828.939,1,6,0.100,16787.000,0.200,10662.000,0.300,1386.000,0.500,119.000,1.000,51.000,5.000,0
"07/09/06","23:01:17","AMMA06",28771.000,"cc",28411.109,6.00,2841.111,1,6,0.100,16440.000,0.200,10806.000,0.300,1392.000,0.500,95.000,1.000,38.000,5.000,0
"07/09/06","23:01:23","AMMA06",28895.000,"cc",28276.231,6.00,2827.623,1,6,0.100,16659.000,0.200,10747.000,0.300,1366.000,0.500,82.000,1.000,41.000,5.000,0
"07/09/06","23:01:29","AMMA06",29216.000,"cc",28322.705,6.00,2832.271,1,6,0.100,16985.000,0.200,10757.000,0.300,1345.000,0.500,92.000,1.000,37.000,5.000,0
"07/09/06","23:01:35","AMMA06",28982.000,"cc",28267.344,6.00,2826.735,1,6,0.100,16799.000,0.200,10654.000,0.300,1359.000,0.500,125.000,1.000,45.000,5.000,0
"07/09/06","23:01:41","AMMA06",29112.000,"cc",28346.684,6.00,2834.669,1,6,0.100,16910.000,0.200,10721.000,0.300,1335.000,0.500,100.000,1.000,46.000,5.000,0
"07/09/06","23:01:47","AMMA06",28887.000,"cc",28314.305,6.00,2831.431,1,6,0.100,16744.000,0.200,10701.000,0.300,1315.000,0.500,85.000,1.000,42.000,5.000,0
"07/09/06","23:01:53","AMMA06",29337.000,"cc",28323.979,6.00,2832.398,1,6,0.100,17009.000,0.200,10768.000,0.300,1403.000,0.500,102.000,1.000,55.000,5.000,0
"07/09/06","23:01:59","AMMA06",29290.000,"cc",28366.793,6.00,2836.679,1,6,0.100,17015.000,0.200,10627.000,0.300,1452.000,0.500,133.000,1.000,63.000,5.000,0
"07/09/06","23:02:05","AMMA06",29322.000,"cc",28333.295,6.00,2833.330,1,6,0.100,16895.000,0.200,10827.000,0.300,1384.000,0.500,156.000,1.000,60.000,5.000,0
"07/09/06","23:02:11","AMMA06",29135.000,"cc",28280.779,6.00,2828.078,1,6,0.100,16923.000,0.200,10688.000,0.300,1379.000,0.500,102.000,1.000,43.000,5.000,0
"07/09/06","23:02:17","AMMA06",29010.000,"cc",28303.334,6.00,2830.334,1,6,0.100,16877.000,0.200,10583.000,0.300,1402.000,0.500,117.000,1.000,31.000,5.000,0
"07/09/06","23:02:23","AMMA06",29043.000,"cc",28269.330,6.00,2826.933,1,6,0.100,16973.000,0.200,10627.000,0.300,1325.000,0.500,79.000,1.000,39.000,5.000,0
"07/09/06","23:02:29","AMMA06",28639.000,"cc",28368.139,6.00,2836.814,1,6,0.100,16835.000,0.200,10374.000,0.300,1293.000,0.500,91.000,1.000,46.000,5.000,0
"07/09/06","23:02:35","AMMA06",27971.000,"cc",28329.732,6.00,2832.973,1,6,0.100,16194.000,0.200,10305.000,0.300,1311.000,0.500,109.000,1.000,52.000,5.000,0
"07/09/06","23:02:41","AMMA06",28530.000,"cc",28323.998,6.00,2832.400,1,6,0.100,16668.000,0.200,10384.000,0.300,1343.000,0.500,90.000,1.000,45.000,5.000,0
"07/09/06","23:02:47","AMMA06",28120.000,"cc",28322.037,6.00,2832.204,1,6,0.100,16357.000,0.200,10328.000,0.300,1301.000,0.500,89.000,1.000,45.000,5.000,0
"07/09/06","23:02:53","AMMA06",28276.000,"cc",28313.408,6.00,2831.341,1,6,0.100,16421.000,0.200,10379.000,0.300,1329.000,0.500,103.000,1.000,44.000,5.000,0
"07/09/06","23:02:59","AMMA06",28323.000,"cc",28303.594,6.00,2830.360,1,6,0.100,16569.000,0.200,10256.000,0.300,1343.000,0.500,105.000,1.000,50.000,5.000,0
"07/09/06","23:03:05","AMMA06",28035.000,"cc",28320.244,6.00,2832.025,1,6,0.100,16278.000,0.200,10210.000,0.300,1396.000,0.500,110.000,1.000,41.000,5.000,0
"07/09/06","23:03:11","AMMA06",28439.000,"cc",28363.990,6.00,2836.399,1,6,0.100,16434.000,0.200,10481.000,0.300,1396.000,0.500,89.000,1.000,39.000,5.000,0
"07/09/06","23:03:17","AMMA06",28458.000,"cc",28266.748,6.00,2826.675,1,6,0.100,16472.000,0.200,10520.000,0.300,1310.000,0.500,120.000,1.000,36.000,5.000,0
"07/09/06","23:03:23","AMMA06",28342.000,"cc",28304.979,6.00,2830.498,1,6,0.100,16485.000,0.200,10427.000,0.300,1275.000,0.500,113.000,1.000,42.000,5.000,0
"07/09/06","23:03:29","AMMA06",28710.000,"cc",28319.971,6.00,2831.997,1,6,0.100,16711.000,0.200,10544.000,0.300,1315.000,0.500,101.000,1.000,39.000,5.000,0
"07/09/06","23:03:35","AMMA06",28486.000,"cc",28302.641,6.00,2830.264,1,6,0.100,16619.000,0.200,10417.000,0.300,1324.000,0.500,86.000,1.000,40.000,5.000,0
"07/09/06","23:03:41","AMMA06",28304.000,"cc",28356.420,6.00,2835.642,1,6,0.100,16458.000,0.200,10373.000,0.300,1326.000,0.500,100.000,1.000,47.000,5.000,0
"07/09/06","23:03:47","AMMA06",28308.000,"cc",28331.998,6.00,2833.200,1,6,0.100,16491.000,0.200,10382.000,0.300,1285.000,0.500,105.000,1.000,45.000,5.000,0
"07/09/06","23:03:53","AMMA06",28398.000,"cc",28274.920,6.00,2827.492,1,6,0.100,16473.000,0.200,10393.000,0.300,1385.000,0.500,113.000,1.000,34.000,5.000,0
"07/09/06","23:03:59","AMMA06",28314.000,"cc",28344.334,6.00,2834.434,1,6,0.100,16428.000,0.200,10354.000,0.300,1368.000,0.500,118.000,1.000,46.000,5.000,0
"07/09/06","23:04:05","AMMA06",27982.000,"cc",28289.576,6.00,2828.958,1,6,0.100,16133.000,0.200,10410.000,0.300,1297.000,0.500,99.000,1.000,43.000,5.000,0
"07/09/06","23:04:11","AMMA06",27960.000,"cc",28294.059,6.00,2829.406,1,6,0.100,16177.000,0.200,10309.000,0.300,1342.000,0.500,91.000,1.000,41.000,5.000,0
"07/09/06","23:04:17","AMMA06",27923.000,"cc",28328.738,6.00,2832.874,1,6,0.100,16105.000,0.200,10393.000,0.300,1273.000,0.500,110.000,1.000,42.000,5.000,0
"07/09/06","23:04:23","AMMA06",28223.000,"cc",28326.287,6.00,2832.629,1,6,0.100,16328.000,0.200,10325.000,0.300,1417.000,0.500,114.000,1.000,39.000,5.000,0
"07/09/06","23:04:29","AMMA06",27903.000,"cc",28346.629,6.00,2834.663,1,6,0.100,16106.000,0.200,10363.000,0.300,1322.000,0.500,76.000,1.000,36.000,5.000,0
"07/09/06","23:04:35","AMMA06",28121.000,"cc",28291.063,6.00,2829.106,1,6,0.100,16219.000,0.200,10457.000,0.300,1314.000,0.500,101.000,1.000,30.000,5.000,0
"07/09/06","23:04:41","AMMA06",28072.000,"cc",28310.088,6.00,2831.009,1,6,0.100,16313.000,0.200,10237.000,0.300,1352.000,0.500,129.000,1.000,41.000,5.000,0
"07/09/06","23:04:47","AMMA06",28230.000,"cc",28373.787,6.00,2837.379,1,6,0.100,16383.000,0.200,10346.000,0.300,1354.000,0.500,110.000,1.000,37.000,5.000,0
"07/09/06","23:04:53","AMMA06",28183.000,"cc",28302.725,6.00,2830.273,1,6,0.100,16169.000,0.200,10495.000,0.300,1372.000,0.500,106.000,1.000,41.000,5.000,0
"07/09/06","23:04:59","AMMA06",28240.000,"cc",28281.195,6.00,2828.120,1,6,0.100,16267.000,0.200,10499.000,0.300,1312.000,0.500,114.000,1.000,48.000,5.000,0
"07/09/06","23:05:05","AMMA06",28147.000,"cc",28293.895,6.00,2829.390,1,6,0.100,16297.000,0.200,10401.000,0.300,1307.000,0.500,92.000,1.000,50.000,5.000,0
"07/09/06","23:05:11","AMMA06",28410.000,"cc",28315.303,6.00,2831.531,1,6,0.100,16348.000,0.200,10581.000,0.300,1354.000,0.500,91.000,1.000,36.000,5.000,0
"07/09/06","23:05:17","AMMA06",28159.000,"cc",28319.402,6.00,2831.940,1,6,0.100,16251.000,0.200,10377.000,0.300,1369.000,0.500,112.000,1.000,50.000,5.000,0
"07/09/06","23:05:23","AMMA06",28259.000,"cc",28374.752,6.00,2837.475,1,6,0.100,16407.000,0.200,10313.000,0.300,1405.000,0.500,95.000,1.000,39.000,5.000,0
"07/09/06","23:05:29","AMMA06",28364.000,"cc",28350.629,6.00,2835.063,1,6,0.100,16407.000,0.200,10470.000,0.300,1356.000,0.500,99.000,1.000,32.000,5.000,0
"07/09/06","23:05:35","AMMA06",28023.000,"cc",28356.816,6.00,2835.682,1,6,0.100,16190.000,0.200,10299.000,0.300,1369.000,0.500,109.000,1.000,56.000,5.000,0
"07/09/06","23:05:41","AMMA06",28415.000,"cc",28287.801,6.00,2828.780,1,6,0.100,16316.000,0.200,10544.000,0.300,1389.000,0.500,127.000,1.000,39.000,5.000,0
"07/09/06","23:05:47","AMMA06",28110.000,"cc",28296.752,6.00,2829.675,1,6,0.100,16220.000,0.200,10408.000,0.300,1324.000,0.500,113.000,1.000,45.000,5.000,0
"07/09/06","23:05:53","AMMA06",28284.000,"cc",28313.354,6.00,2831.335,1,6,0.100,16115.000,0.200,10579.000,0.300,1435.000,0.500,116.000,1.000,39.000,5.000,0
"07/09/06","23:05:59","AMMA06",28288.000,"cc",28344.088,6.00,2834.409,1,6,0.100,16139.000,0.200,10597.000,0.300,1413.000,0.500,96.000,1.000,43.000,5.000,0
"07/09/06","23:06:05","AMMA06",28312.000,"cc",28298.867,6.00,2829.887,1,6,0.100,16082.000,0.200,10757.000,0.300,1335.000,0.500,91.000,1.000,47.000,5.000,0
"07/09/06","23:06:11","AMMA06",27868.000,"cc",28293.672,6.00,2829.367,1,6,0.100,15985.000,0.200,10412.000,0.300,1323.000,0.500,107.000,1.000,41.000,5.000,0
"07/09/06","23:06:17","AMMA06",28416.000,"cc",28306.676,6.00,2830.668,1,6,0.100,16325.000,0.200,10553.000,0.300,1389.000,0.500,108.000,1.000,41.000,5.000,0
"07/09/06","23:06:23","AMMA06",28707.000,"cc",28334.195,6.00,2833.420,1,6,0.100,16480.000,0.200,10527.000,0.300,1507.000,0.500,138.000,1.000,55.000,5.000,0
"07/09/06","23:06:29","AMMA06",28309.000,"cc",28335.264,6.00,2833.527,1,6,0.100,16134.000,0.200,10589.000,0.300,1442.000,0.500,105.000,1.000,39.000,5.000,0
"07/09/06","23:06:35","AMMA06",28574.000,"cc",28281.764,6.00,2828.177,1,6,0.100,16354.000,0.200,10660.000,0.300,1407.000,0.500,115.000,1.000,38.000,5.000,0
"07/09/06","23:06:41","AMMA06",28384.000,"cc",28311.727,6.00,2831.173,1,6,0.100,16232.000,0.200,10569.000,0.300,1416.000,0.500,119.000,1.000,48.000,5.000,0
"07/09/06","23:06:47","AMMA06",28110.000,"cc",28314.400,6.00,2831.440,1,6,0.100,16034.000,0.200,10594.000,0.300,1335.000,0.500,94.000,1.000,53.000,5.000,0
"07/09/06","23:06:53","AMMA06",28173.000,"cc",28400.260,6.00,2840.026,1,6,0.100,16166.000,0.200,10497.000,0.300,1390.000,0.500,91.000,1.000,29.000,5.000,0
"07/09/06","23:06:59","AMMA06",28196.000,"cc",28304.791,6.00,2830.479,1,6,0.100,16184.000,0.200,10430.000,0.300,1432.000,0.500,108.000,1.000,42.000,5.000,0
"07/09/06","23:07:05","AMMA06",28455.000,"cc",28300.840,6.00,2830.084,1,6,0.100,16209.000,0.200,10711.000,0.300,1394.000,0.500,95.000,1.000,46.000,5.000,0
"07/09/06","23:07:11","AMMA06",28432.000,"cc",28363.023,6.00,2836.303,1,6,0.100,16333.000,0.200,10623.000,0.300,1336.000,0.500,105.000,1.000,35.000,5.000,0
"07/09/06","23:07:17","AMMA06",28320.000,"cc",28264.994,6.00,2826.500,1,6,0.100,16277.000,0.200,10524.000,0.300,1383.000,0.500,89.000,1.000,47.000,5.000,0
"07/09/06","23:07:23","AMMA06",28135.000,"cc",28335.260,6.00,2833.526,1,6,0.100,16196.000,0.200,10401.000,0.300,1389.000,0.500,104.000,1.000,45.000,5.000,0
"07/09/06","23:07:29","AMMA06",28560.000,"cc",28268.945,6.00,2826.895,1,6,0.100,16308.000,0.200,10749.000,0.300,1362.000,0.500,99.000,1.000,42.000,5.000,0
"07/09/06","23:07:35","AMMA06",28364.000,"cc",28320.750,6.00,2832.075,1,6,0.100,16290.000,0.200,10578.000,0.300,1340.000,0.500,110.000,1.000,46.000,5.000,0
"07/09/06","23:07:41","AMMA06",28051.000,"cc",28334.947,6.00,2833.495,1,6,0.100,16011.000,0.200,10552.000,0.300,1333.000,0.500,105.000,1.000,50.000,5.000,0
"07/09/06","23:07:47","AMMA06",28088.000,"cc",28302.934,6.00,2830.294,1,6,0.100,16149.000,0.200,10418.000,0.300,1396.000,0.500,93.000,1.000,32.000,5.000,0
"07/09/06","23:07:53","AMMA06",28407.000,"cc",28331.773,6.00,2833.178,1,6,0.100,16283.000,0.200,10456.000,0.300,1466.000,0.500,148.000,1.000,54.000,5.000,0
"07/09/06","23:07:59","AMMA06",27881.000,"cc",28348.316,6.00,2834.832,1,6,0.100,15972.000,0.200,10339.000,0.300,1423.000,0.500,103.000,1.000,44.000,5.000,0
"07/09/06","23:08:05","AMMA06",27862.000,"cc",28309.674,6.00,2830.968,1,6,0.100,16039.000,0.200,10293.000,0.300,1378.000,0.500,111.000,1.000,41.000,5.000,0
"07/09/06","23:08:11","AMMA06",27560.000,"cc",28308.729,6.00,2830.873,1,6,0.100,15917.000,0.200,10184.000,0.300,1307.000,0.500,108.000,1.000,44.000,5.000,0
"07/09/06","23:08:17","AMMA06",28026.000,"cc",28285.311,6.00,2828.531,1,6,0.100,16033.000,0.200,10448.000,0.300,1416.000,0.500,95.000,1.000,34.000,5.000,0
"07/09/06","23:08:23","AMMA06",28010.000,"cc",28346.410,6.00,2834.641,1,6,0.100,16130.000,0.200,10305.000,0.300,1421.000,0.500,119.000,1.000,35.000,5.000,0
"07/09/06","23:08:29","AMMA06",27987.000,"cc",28376.572,6.00,2837.658,1,6,0.100,16018.000,0.200,10436.000,0.300,1349.000,0.500,140.000,1.000,44.000,5.000,0
"07/09/06","23:08:35","AMMA06",27730.000,"cc",28244.531,6.00,2824.453,1,6,0.100,15937.000,0.200,10259.000,0.300,1371.000,0.500,117.000,1.000,46.000,5.000,0
"07/09/06","23:08:41","AMMA06",27996.000,"cc",28301.602,6.00,2830.160,1,6,0.100,16130.000,0.200,10347.000,0.300,1348.000,0.500,135.000,1.000,36.000,5.000,0
"07/09/06","23:08:47","AMMA06",27906.000,"cc",28361.148,6.00,2836.115,1,6,0.100,16028.000,0.200,10370.000,0.300,1344.000,0.500,117.000,1.000,47.000,5.000,0
"07/09/06","23:08:53","AMMA06",27746.000,"cc",28282.598,6.00,2828.260,1,6,0.100,16088.000,0.200,10168.000,0.300,1359.000,0.500,99.000,1.000,32.000,5.000,0
"07/09/06","23:08:59","AMMA06",27748.000,"cc",28277.055,6.00,2827.706,1,6,0.100,16025.000,0.200,10200.000,0.300,1357.000,0.500,117.000,1.000,49.000,5.000,0
"07/09/06","23:09:05","AMMA06",28129.000,"cc",28342.201,6.00,2834.220,1,6,0.100,16248.000,0.200,10342.000,0.300,1390.000,0.500,107.000,1.000,42.000,5.000,0
"07/09/06","23:09:11","AMMA06",28255.000,"cc",28369.227,6.00,2836.923,1,6,0.100,16281.000,0.200,10395.000,0.300,1404.000,0.500,122.000,1.000,53.000,5.000,0
"07/09/06","23:09:17","AMMA06",27964.000,"cc",28274.746,6.00,2827.475,1,6,0.100,16211.000,0.200,10137.000,0.300,1452.000,0.500,121.000,1.000,43.000,5.000,0
"07/09/06","23:09:23","AMMA06",27835.000,"cc",28330.078,6.00,2833.008,1,6,0.100,16213.000,0.200,10175.000,0.300,1309.000,0.500,107.000,1.000,31.000,5.000,0
"07/09/06","23:09:29","AMMA06",27820.000,"cc",28330.785,6.00,2833.079,1,6,0.100,16111.000,0.200,10265.000,0.300,1326.000,0.500,94.000,1.000,24.000,5.000,0
"07/09/06","23:09:35","AMMA06",27719.000,"cc",28333.365,6.00,2833.337,1,6,0.100,16038.000,0.200,10153.000,0.300,1353.000,0.500,126.000,1.000,49.000,5.000,0
"07/09/06","23:09:41","AMMA06",27950.000,"cc",28332.231,6.00,2833.223,1,6,0.100,16332.000,0.200,10170.000,0.300,1307.000,0.500,100.000,1.000,41.000,5.000,0
"07/09/06","23:09:47","AMMA06",27703.000,"cc",28297.832,6.00,2829.783,1,6,0.100,16034.000,0.200,10212.000,0.300,1329.000,0.500,88.000,1.000,40.000,5.000,0
"07/09/06","23:09:53","AMMA06",27836.000,"cc",28319.373,6.00,2831.938,1,6,0.100,16138.000,0.200,10279.000,0.300,1264.000,0.500,111.000,1.000,44.000,5.000,0
"07/09/06","23:09:59","AMMA06",27723.000,"cc",28335.613,6.00,2833.562,1,6,0.100,16155.000,0.200,10061.000,0.300,1359.000,0.500,112.000,1.000,36.000,5.000,0
"07/09/06","23:10:05","AMMA06",27642.000,"cc",28334.695,6.00,2833.470,1,6,0.100,16009.000,0.200,10154.000,0.300,1320.000,0.500,119.000,1.000,40.000,5.000,0
"07/09/06","23:10:11","AMMA06",27678.000,"cc",28269.834,6.00,2826.984,1,6,0.100,16131.000,0.200,10135.000,0.300,1283.000,0.500,94.000,1.000,35.000,5.000,0
"07/09/06","23:10:17","AMMA06",27794.000,"cc",28260.307,6.00,2826.031,1,6,0.100,16319.000,0.200,10057.000,0.300,1297.000,0.500,94.000,1.000,27.000,5.000,0
"07/09/06","23:10:23","AMMA06",27659.000,"cc",28305.824,6.00,2830.583,1,6,0.100,16353.000,0.200,9950.000,0.300,1229.000,0.500,93.000,1.000,34.000,5.000,0
"07/09/06","23:10:29","AMMA06",27749.000,"cc",28341.852,6.00,2834.185,1,6,0.100,16295.000,0.200,10017.000,0.300,1303.000,0.500,94.000,1.000,40.000,5.000,0
"07/09/06","23:10:35","AMMA06",27816.000,"cc",28371.273,6.00,2837.127,1,6,0.100,16197.000,0.200,10144.000,0.300,1334.000,0.500,102.000,1.000,39.000,5.000,0
"07/09/06","23:10:41","AMMA06",27566.000,"cc",28306.387,6.00,2830.639,1,6,0.100,16120.000,0.200,9962.000,0.300,1345.000,0.500,97.000,1.000,42.000,5.000,0
"07/09/06","23:10:47","AMMA06",27614.000,"cc",28358.496,6.00,2835.850,1,6,0.100,16146.000,0.200,10074.000,0.300,1255.000,0.500,97.000,1.000,42.000,5.000,0
"07/09/06","23:10:53","AMMA06",27789.000,"cc",28349.522,6.00,2834.952,1,6,0.100,16239.000,0.200,10111.000,0.300,1267.000,0.500,123.000,1.000,49.000,5.000,0
"07/09/06","23:10:59","AMMA06",27540.000,"cc",28309.793,6.00,2830.980,1,6,0.100,15936.000,0.200,10178.000,0.300,1300.000,0.500,86.000,1.000,40.000,5.000,0
"07/09/06","23:11:05","AMMA06",27313.000,"cc",28262.713,6.00,2826.272,1,6,0.100,16012.000,0.200,9862.000,0.300,1335.000,0.500,71.000,1.000,33.000,5.000,0
"07/09/06","23:11:11","AMMA06",27562.000,"cc",28332.430,6.00,2833.243,1,6,0.100,16120.000,0.200,9949.000,0.300,1361.000,0.500,93.000,1.000,39.000,5.000,0
"07/09/06","23:11:17","AMMA06",27382.000,"cc",28326.000,6.00,2832.600,1,6,0.100,16028.000,0.200,9931.000,0.300,1291.000,0.500,103.000,1.000,29.000,5.000,0
"07/09/06","23:11:23","AMMA06",27478.000,"cc",28298.688,6.00,2829.869,1,6,0.100,16165.000,0.200,9949.000,0.300,1223.000,0.500,91.000,1.000,50.000,5.000,0
"07/09/06","23:11:29","AMMA06",27210.000,"cc",28275.801,6.00,2827.580,1,6,0.100,15988.000,0.200,9856.000,0.300,1252.000,0.500,77.000,1.000,37.000,5.000,0
"07/09/06","23:11:35","AMMA06",27312.000,"cc",28356.824,6.00,2835.683,1,6,0.100,16001.000,0.200,9948.000,0.300,1242.000,0.500,87.000,1.000,34.000,5.000,0
"07/09/06","23:11:41","AMMA06",27374.000,"cc",28290.115,6.00,2829.012,1,6,0.100,16012.000,0.200,9966.000,0.300,1253.000,0.500,111.000,1.000,32.000,5.000,0
"07/09/06","23:11:47","AMMA06",27537.000,"cc",28352.963,6.00,2835.296,1,6,0.100,16146.000,0.200,9980.000,0.300,1300.000,0.500,80.000,1.000,31.000,5.000,0
"07/09/06","23:11:53","AMMA06",27503.000,"cc",28296.324,6.00,2829.633,1,6,0.100,16061.000,0.200,9968.000,0.300,1318.000,0.500,116.000,1.000,40.000,5.000,0
"07/09/06","23:11:59","AMMA06",27606.000,"cc",28329.850,6.00,2832.985,1,6,0.100,16112.000,0.200,10081.000,0.300,1278.000,0.500,97.000,1.000,38.000,5.000,0
"07/09/06","23:12:05","AMMA06",27421.000,"cc",28303.061,6.00,2830.306,1,6,0.100,16044.000,0.200,9945.000,0.300,1301.000,0.500,98.000,1.000,33.000,5.000,0
"07/09/06","23:12:11","AMMA06",27393.000,"cc",28298.961,6.00,2829.896,1,6,0.100,16016.000,0.200,9979.000,0.300,1276.000,0.500,91.000,1.000,31.000,5.000,0
"07/09/06","23:12:17","AMMA06",27836.000,"cc",28355.606,6.00,2835.561,1,6,0.100,16305.000,0.200,10052.000,0.300,1354.000,0.500,95.000,1.000,30.000,5.000,0
"07/09/06","23:12:23","AMMA06",27500.000,"cc",28357.631,6.00,2835.763,1,6,0.100,16057.000,0.200,10023.000,0.300,1284.000,0.500,97.000,1.000,39.000,5.000,0
"07/09/06","23:12:29","AMMA06",27180.000,"cc",28292.686,6.00,2829.269,1,6,0.100,15670.000,0.200,10098.000,0.300,1276.000,0.500,103.000,1.000,33.000,5.000,0
"07/09/06","23:12:35","AMMA06",27389.000,"cc",28307.934,6.00,2830.794,1,6,0.100,15970.000,0.200,10003.000,0.300,1267.000,0.500,108.000,1.000,41.000,5.000,0
"07/09/06","23:12:41","AMMA06",27443.000,"cc",28363.174,6.00,2836.318,1,6,0.100,16041.000,0.200,9937.000,0.300,1329.000,0.500,93.000,1.000,43.000,5.000,0
"07/09/06","23:12:47","AMMA06",27432.000,"cc",28326.342,6.00,2832.634,1,6,0.100,15978.000,0.200,10043.000,0.300,1303.000,0.500,86.000,1.000,22.000,5.000,0
"07/09/06","23:12:53","AMMA06",27237.000,"cc",28285.111,6.00,2828.511,1,6,0.100,15893.000,0.200,9912.000,0.300,1302.000,0.500,96.000,1.000,34.000,5.000,0
"07/09/06","23:12:59","AMMA06",27763.000,"cc",28302.734,6.00,2830.274,1,6,0.100,15941.000,0.200,10353.000,0.300,1326.000,0.500,107.000,1.000,36.000,5.000,0
"07/09/06","23:13:05","AMMA06",27512.000,"cc",28339.727,6.00,2833.973,1,6,0.100,16045.000,0.200,9934.000,0.300,1383.000,0.500,103.000,1.000,47.000,5.000,0
"07/09/06","23:13:11","AMMA06",27580.000,"cc",28295.184,6.00,2829.519,1,6,0.100,15858.000,0.200,10221.000,0.300,1339.000,0.500,112.000,1.000,50.000,5.000,0
"07/09/06","23:13:17","AMMA06",27566.000,"cc",28291.227,6.00,2829.123,1,6,0.100,16082.000,0.200,9964.000,0.300,1354.000,0.500,112.000,1.000,54.000,5.000,0
"07/09/06","23:13:23","AMMA06",27704.000,"cc",28344.613,6.00,2834.461,1,6,0.100,16063.000,0.200,10153.000,0.300,1330.000,0.500,113.000,1.000,45.000,5.000,0
"07/09/06","23:13:29","AMMA06",27649.000,"cc",28301.754,6.00,2830.176,1,6,0.100,15975.000,0.200,10148.000,0.300,1337.000,0.500,133.000,1.000,56.000,5.000,0
"07/09/06","23:13:35","AMMA06",27097.000,"cc",28339.990,6.00,2833.999,1,6,0.100,15696.000,0.200,9883.000,0.300,1359.000,0.500,109.000,1.000,50.000,5.000,0
"07/09/06","23:13:41","AMMA06",27422.000,"cc",28326.014,6.00,2832.602,1,6,0.100,15736.000,0.200,10196.000,0.300,1340.000,0.500,104.000,1.000,46.000,5.000,0
"07/09/06","23:13:47","AMMA06",27523.000,"cc",28242.955,6.00,2824.296,1,6,0.100,15842.000,0.200,10226.000,0.300,1304.000,0.500,105.000,1.000,46.000,5.000,0
"07/09/06","23:13:53","AMMA06",27512.000,"cc",28339.492,6.00,2833.950,1,6,0.100,15806.000,0.200,10167.000,0.300,1387.000,0.500,103.000,1.000,49.000,5.000,0
"07/09/06","23:13:59","AMMA06",27613.000,"cc",28292.076,6.00,2829.208,1,6,0.100,15877.000,0.200,10238.000,0.300,1348.000,0.500,106.000,1.000,44.000,5.000,0
"07/09/06","23:14:05","AMMA06",27384.000,"cc",28348.643,6.00,2834.865,1,6,0.100,15758.000,0.200,10117.000,0.300,1387.000,0.500,87.000,1.000,35.000,5.000,0
"07/09/06","23:14:11","AMMA06",27227.000,"cc",28369.375,6.00,2836.938,1,6,0.100,15587.000,0.200,10169.000,0.300,1308.000,0.500,118.000,1.000,45.000,5.000,0
"07/09/06","23:14:17","AMMA06",27421.000,"cc",28305.379,6.00,2830.538,1,6,0.100,15541.000,0.200,10377.000,0.300,1345.000,0.500,112.000,1.000,46.000,5.000,0
"07/09/06","23:14:23","AMMA06",27282.000,"cc",28300.750,6.00,2830.075,1,6,0.100,15586.000,0.200,10238.000,0.300,1312.000,0.500,104.000,1.000,42.000,5.000,0
"07/09/06","23:14:29","AMMA06",27363.000,"cc",28304.342,6.00,2830.434,1,6,0.100,15629.000,0.200,10269.000,0.300,1342.000,0.500,81.000,1.000,42.000,5.000,0